Flag for Germany Weather past 2 weeks in Mannheim, Baden-Württemberg, Germany

Now
66 °F

Sunny.


Feels Like: 66 °F
Forecast: 56 / 71 °F
Wind: 10 mph from West

Location: Baden Wurttemberg - Neuostheim

Current Time: Jul 28, 2015 at 10:48:14 PM

Latest Report: Jul 28, 2015 at 9:20 PM


Visibility: N/A

Pressure: 29.83 "Hg

Humidity: 43%

Dew point: 43 °F

Location of MannheimLocation

Historic Weather in Mannheim — Graph

°F

Mannheim temperature yesterday

Maximum temperature yesterday: 73 °F (at 4:50 PM)
Minimum temperature yesterday: 61 °F (at 5:50 AM)
Average temperature yesterday: 68 °F

Past Weeks' High & Low Weather Summary

 TemperatureHumidityPressure
High95 °F (Jul 17, 3:50 PM)100% (Jul 19, 2:50 PM)30.15 "Hg (Jul 19, 2:50 PM)
Low55 °F (Jul 26, 7:50 AM)19% (Jul 16, 7:50 PM)29.65 "Hg (Jul 24, 7:50 PM)
Average77 °F53%29.93 "Hg
* Reported Jul 13 9:20 PM — Jul 28 9:20 PM, Mannheim, Weather by CustomWeather, © 2015

Note: Actual official high and low records may vary slightly from our data, if they occured in-between our weather recording intervals... More about our weather records

Advertising

Mannheim weather history for previous 24 hours

 ConditionsComfort  
Time TempWeatherWind HumidityBarometerVisibility
9:20 PM
Tue, Jul 28
66 °FSunny.10 mph43%29.83 "HgN/A
8:50 PM68 °FSunny.10 mph40%29.83 "Hg10 mi
8:20 PM68 °FPassing clouds.9 mph40%29.83 "HgN/A
7:50 PM68 °FSunny.13 mph40%29.83 "Hg10 mi
7:20 PM68 °FSunny.9 mph40%29.83 "Hg10 mi
6:50 PM68 °FPassing clouds.13 mph40%29.80 "HgN/A
6:20 PM68 °FPassing clouds.10 mph40%29.80 "HgN/A
5:50 PM70 °FPassing clouds.13 mph38%29.80 "HgN/A
5:20 PM70 °FPassing clouds.16 mph35%29.80 "HgN/A
4:50 PM72 °FPassing clouds.14 mph33%29.80 "HgN/A
4:20 PM72 °FPassing clouds.15 mph33%29.80 "HgN/A
3:50 PM70 °FPassing clouds.14 mph35%29.80 "HgN/A
3:20 PM72 °FPassing clouds.16 mph36%29.80 "HgN/A
2:50 PM70 °FPassing clouds.16 mph38%29.80 "HgN/A
2:20 PM72 °FPassing clouds.15 mph41%29.80 "HgN/A
1:50 PM70 °FPassing clouds.17 mph43%29.80 "HgN/A
1:20 PM68 °FPassing clouds.15 mph43%29.83 "HgN/A
12:50 PM68 °FScattered clouds.14 mph43%29.83 "HgN/A
12:20 PM68 °FBroken clouds.18 mph43%29.83 "HgN/A
11:50 AM66 °FScattered clouds.14 mph46%29.83 "HgN/A
11:20 AM68 °FScattered clouds.13 mph43%29.83 "HgN/A
10:50 AM66 °FPassing clouds.14 mph46%29.83 "HgN/A
10:20 AM64 °FPartly sunny.16 mph46%29.83 "HgN/A
9:50 AM66 °FScattered clouds.14 mph46%29.83 "HgN/A
9:20 AM64 °FBroken clouds.12 mph52%29.83 "HgN/A
8:50 AM64 °FBroken clouds.16 mph56%29.80 "HgN/A
8:20 AM63 °FPartly sunny.8 mph68%29.80 "HgN/A
7:50 AM63 °FPartly sunny.10 mph68%29.80 "HgN/A
7:20 AM63 °FBroken clouds.8 mph73%29.80 "HgN/A
6:50 AM63 °FPartly cloudy.9 mph73%29.80 "HgN/A
6:20 AM63 °FPassing clouds.10 mph68%29.77 "HgN/A
5:50 AM63 °FScattered showers. Partly cloudy.14 mph68%29.77 "HgN/A
Weather by CustomWeather, © 2015

See weather overviewHow to use our weather pages